Bridgeport, WV

3:46 AM EST on February 24, 2017 (GMT -0500)
Benedum

Weather History for KCKB - March, 2013

Change the Weather History Date:

Sunday, March 17, 2013

  Actual Average Record
Temperature  
Mean Temperature 37 °F -  
Max Temperature 42 °F 53 °F 80 °F (1945)
Min Temperature 32 °F 27 °F 13 °F (1941)
Degree Days  
Heating Degree Days 28    
Moisture  
Dew Point 28 °F    
Average Humidity 73    
Maximum Humidity 89    
Minimum Humidity 56    
Precipitation  
Precipitation 0.00 in - - ()
Sea Level Pressure  
Sea Level Pressure 30.06 in    
Wind  
Wind Speed 7 mph (NNE)    
Max Wind Speed 12 mph    
Max Gust Speed -    
Visibility 9 miles    
Events      
Averages and records for this station are not official NWS values.
T = Trace of Precipitation, MM = Missing Value Source: NWS Daily Summary

Daily Weather History Graph

Daily Weather History Graph

Search for Another Location

Airport or City:

Trip Planner

Search our weather history database for the weather conditions in past years. The results will help you decide how hot, cold, wet, or windy it might be!

Date:

Astronomy

Mar. 17, 2013 Rise Set
Actual Time 7:28 AM EDT 7:30 PM EDT
Civil Twilight 7:02 AM EDT 7:56 PM EDT
Nautical Twilight 6:30 AM EDT 8:28 PM EDT
Astronomical Twilight 5:59 AM EDT 8:59 PM EDT
Moon 10:42 AM EDT (3/17) 12:34 AM EDT (3/17)
Length of Visible Light 12h 54m
Length of Day
12h 01m
Waxing Crescent, 31% of the Moon is Illuminated
Mar 17
Waxing Crescent
Mar 19
First Quarter
Mar 27
Full
Apr 3
Last Quarter
Apr 10
New

Hourly Weather History & Observations

Time (EDT) Temp. Windchill Dew Point Humidity Pressure Visibility Wind Dir Wind Speed Gust Speed Precip Events Conditions
12:27 AM 42.8 °F 38.0 °F 37.4 °F 81% 29.93 in 10.0 mi NNW 8.1 mph - N/A   Overcast
12:53 AM 42.1 °F 40.2 °F 37.0 °F 82% 29.92 in 10.0 mi NW 3.5 mph - N/A   Overcast
1:53 AM 42.1 °F 37.7 °F 35.1 °F 76% 29.94 in 10.0 mi WNW 6.9 mph - N/A   Overcast
2:42 AM 39.2 °F 34.2 °F 35.6 °F 87% 29.96 in 9.0 mi North 6.9 mph - N/A   Mostly Cloudy
2:53 AM 39.0 °F 35.7 °F 36.0 °F 89% 29.96 in 7.0 mi North 4.6 mph - N/A   Mostly Cloudy
3:05 AM 39.2 °F 37.0 °F 35.6 °F 87% 29.96 in 7.0 mi NNE 3.5 mph - N/A   Mostly Cloudy
3:13 AM 39.2 °F 35.0 °F 35.6 °F 87% 29.97 in 7.0 mi NNE 5.8 mph - N/A   Overcast
3:21 AM 39.2 °F 33.6 °F 35.6 °F 87% 29.97 in 6.0 mi NNE 8.1 mph - N/A   Overcast
3:30 AM 39.2 °F 35.0 °F 35.6 °F 87% 29.97 in 6.0 mi North 5.8 mph - N/A   Overcast
3:53 AM 37.9 °F 31.5 °F 35.1 °F 89% 29.95 in 8.0 mi North 9.2 mph - N/A   Overcast
4:53 AM 37.0 °F 31.0 °F 33.1 °F 86% 29.96 in 10.0 mi North 8.1 mph - N/A   Overcast
5:29 AM 35.6 °F 29.2 °F 32.0 °F 87% 29.98 in 10.0 mi North 8.1 mph - N/A   Overcast
5:53 AM 36.0 °F 28.5 °F 30.9 °F 82% 29.99 in 10.0 mi North 10.4 mph - N/A   Overcast
6:53 AM 34.0 °F 28.0 °F 28.9 °F 82% 30.04 in 10.0 mi North 6.9 mph - N/A   Overcast
7:53 AM 32.0 °F 23.6 °F 27.0 °F 82% 30.08 in 10.0 mi NNE 10.4 mph - N/A   Overcast
8:53 AM 32.0 °F 27.5 °F 27.0 °F 82% 30.12 in 10.0 mi North 4.6 mph - N/A   Overcast
9:36 AM 32.0 °F 23.6 °F 26.6 °F 80% 30.12 in 10.0 mi NE 10.4 mph - N/A   Overcast
9:53 AM 32.0 °F 24.2 °F 25.0 °F 75% 30.13 in 10.0 mi NE 9.2 mph - N/A   Overcast
10:53 AM 32.0 °F 23.0 °F 25.0 °F 75% 30.15 in 10.0 mi NNE 11.5 mph - N/A   Overcast
11:53 AM 34.0 °F 26.6 °F 24.1 °F 67% 30.14 in 10.0 mi NE 9.2 mph - N/A   Overcast
12:53 PM 35.1 °F 27.9 °F 21.9 °F 59% 30.14 in 10.0 mi NE 9.2 mph - N/A   Overcast
1:26 PM 35.6 °F 28.6 °F 21.2 °F 56% 30.12 in 10.0 mi NNE 9.2 mph - N/A   Overcast
1:53 PM 36.0 °F 28.5 °F 23.0 °F 59% 30.14 in 10.0 mi North 10.4 mph - N/A   Overcast
2:53 PM 36.0 °F 29.6 °F 23.0 °F 59% 30.12 in 10.0 mi NNE 8.1 mph - N/A   Overcast
3:53 PM 37.0 °F 31.6 °F 23.0 °F 57% 30.11 in 10.0 mi ENE 6.9 mph - N/A   Overcast
4:53 PM 37.9 °F 32.7 °F 24.1 °F 57% 30.12 in 10.0 mi North 6.9 mph - N/A   Overcast
5:53 PM 37.9 °F 34.4 °F 24.1 °F 57% 30.12 in 10.0 mi NNE 4.6 mph - N/A   Overcast
6:53 PM 37.9 °F 32.1 °F 24.1 °F 57% 30.12 in 10.0 mi NNE 8.1 mph - N/A   Overcast
7:53 PM 37.0 °F 31.6 °F 24.1 °F 59% 30.13 in 10.0 mi NNE 6.9 mph - N/A   Overcast
8:00 PM 37.4 °F 31.4 °F 24.8 °F 60% 30.11 in 10.0 mi NNE 8.1 mph - N/A   Overcast
8:53 PM 37.0 °F 31.6 °F 24.1 °F 59% 30.13 in 10.0 mi NNE 6.9 mph - N/A   Overcast
9:53 PM 36.0 °F 31.1 °F 23.0 °F 59% 30.13 in 10.0 mi NNE 5.8 mph - N/A   Overcast
10:53 PM 36.0 °F 30.3 °F 23.0 °F 59% 30.12 in 10.0 mi NE 6.9 mph - N/A   Overcast
11:53 PM 36.0 °F 32.1 °F 25.0 °F 64% 30.10 in 10.0 mi NNE 4.6 mph - 0.00 in   Overcast